Regional Weather Roundup
Issued by NWS Raleigh/Durham, NC

Home | Current Version | Previous Version | Text Only | Print | Product List | Glossary On
Versions: 1 2 3 4 5 6 7 8 9 10 11 12 13 14 15 16 17 18 19 20 21 22 23 24 25 26 27 28 29 30 31 32 33 34 35 36 37 38 39 40 41 42 43 44 45 46 47 48
000
ASUS42 KRAH 131510
RWRRAH
NORTH CAROLINA WEATHER ROUNDUP
NATIONAL WEATHER SERVICE RALEIGH NC
1000 AM EST SAT FEB 13 2016

NOTE: "FAIR" INDICATES FEW OR NO CLOUDS BELOW 12,000 FEET WITH NO
SIGNIFICANT WEATHER AND/OR OBSTRUCTIONS TO VISIBILITY.

NCZ001-053-055-056-065-067-131600-
WESTERN NORTH CAROLINA

CITY           SKY/WX    TMP DP  RH WIND       PRES   REMARKS
ASHEVILLE      SUNNY     23   7  50 N17G28    30.24R WCI   9
JEFFERSON      PTSUNNY   13   0  55 NW22G33   30.09R WCI  -6
MORGANTON      SUNNY     29   4  34 NW9G16    30.31R WCI  20
HICKORY        SUNNY     29   5  36 VRB5      30.26R WCI  24
RUTHERFORDTON  SUNNY     31   5  32 N9G16     30.28R WCI  23
MOUNT AIRY     MOSUNNY   25   1  35 W13G23    30.30R WCI  13
BOONE          CLOUDY    14   1  55 NW25G47   30.10R WCI  -5
$$

NCZ021-022-025-041-071-084-088-131600-
CENTRAL NORTH CAROLINA

CITY           SKY/WX    TMP DP  RH WIND       PRES   REMARKS
CHARLOTTE      MOSUNNY   35   6  29 N12G21    30.29R WCI  27
GREENSBORO     MOSUNNY   27  -1  30 NW21G30   30.27R WCI  13
WINSTON-SALEM  SUNNY     27   0  31 N17G32    30.29R WCI  14
RALEIGH-DURHAM MOSUNNY   29   2  31 VRB6      30.29R WCI  23
FORT BRAGG     SUNNY     33  12  41 N12G23    30.27R WCI  25
FAYETTEVILLE   SUNNY     34  19  54 N14       30.27R WCI  25
BURLINGTON     PTSUNNY   28   4  35 NW12G21   30.29R WCI  18
LAURINBURG     SUNNY     34  18  52 N12G20    30.29R WCI  25
$$

NCZ011-015-027-028-043-044-047-080-103-131600-
NORTHEASTERN NORTH CAROLINA

CITY           SKY/WX    TMP DP  RH WIND       PRES   REMARKS
ROCKY MT-WILSO SUNNY     30   2  30 NW18      30.29R WCI  18
GREENVILLE     SUNNY     32   7  34 NW15G23   30.27R WCI  22
WASHINGTON     SUNNY     31   6  34 NW14G20   30.25R WCI  21
ELIZABETH CITY SUNNY     29  12  49 NW23      30.23R WCI  15
MANTEO         NOT AVBL
CAPE HATTERAS  SUNNY     36  20  52 VRB7G18   30.20R WCI  30
$$

NCZ078-087-090-091-093-098-101-131600-
SOUTHEASTERN NORTH CAROLINA

CITY           SKY/WX    TMP DP  RH WIND       PRES   REMARKS
LUMBERTON      SUNNY     36  16  44 N16G22    30.28R WCI  26
GOLDSBORO      SUNNY     32  10  40 NW16G26   30.26R WCI  21
KINSTON        SUNNY     30  19  64 N13       30.27R WCI  20
KENANSVILLE    SUNNY     32  24  72 N5        30.28R WCI  28
NEW BERN       SUNNY     33  21  61 NW17G24   30.26R WCI  22
CHERRY POINT   SUNNY     35  21  56 N24G30    30.25R WCI  23
BEAUFORT       SUNNY     36  20  52 N22G31    30.23R WCI  25
JACKSONVILLE   SUNNY     35  19  52 N21G30    30.25R WCI  24
WILMINGTON     SUNNY     39  22  50 N13G23    30.26R WCI  31
$$




USA.gov is the U.S. government's official web portal to all federal, state and local government web resources and services.